Find Tachys

NORAD ID: 33314 Int'l Des: 2008-040 Owner: REYE Country: D operational
LEOCIRCULARRETROGRADESSO

Live-Position

3D-Globus wird geladen...

Über Tachys

Beschreibung wird geladen...

Nächste Überflüge

Passes for default location (London). Set your location on the main map for personalized predictions.

Höhenverlauf

Loading altitude history...

Zweizeiliger Elementsatz

1 33314U 08040C 26104.51221370 .00000975 00000-0 75800-4 0 9995
2 33314 97.4143 135.1592 0028350 38.5343 321.7899 15.03189699956093
Epoch: 14. Apr. 2026 • Age: 6 hours

Aktueller Status

Höhe 588.8 km
Geschwindigkeit 7.56 km/s
Subsatellitenpunkt -68.78°S, 36.33°E
Startdatum 29. Aug. 2008
Alter 17.6 years
Typ other

Technische Details

Klassifizierung Payload
Masse 152.00 kg
Trockenmasse 140.00 kg
Gesamtmasse 152.00 kg
Länge 1.00 m
Durchmesser 0.80 m
Spannweite 1.00 m
Form Hept Cyl
Hersteller SSTL
Bus-Typ SSTL-150
Phasenstatus In Orbit
Besitzer/Staat REYE/D

Most Searched